(283617) = 2002 CH110

Discovered at Socorro on 2002-02-07 by LINEAR.

Orbit

Orbit type: Main Belt

Note: WebGL enabled browser required.

epoch2023-09-13.0
epoch JD2460200.5
perihelion date2020-01-10.39881
perihelion JD2458858.89881
argument of perihelion (°)141.24836
ascending node (°)355.19876
inclination (°)8.98494
eccentricity0.0962220
perihelion distance (AU)2.4782905
Tisserand w.r.t. Jupiter3.3
ΔV w.r.t. Earth (km/sec)10.2
semimajor axis (AU)2.7421452
mean anomaly (°)291.20015
mean daily motion (°/day)0.21705420
aphelion distance (AU)3.006
period (years)4.54
P-vector [x]-0.72538159
P-vector [y]0.58625930
P-vector [z]0.36072369
Q-vector [x]-0.68822284
Q-vector [y]-0.60773836
Q-vector [z]-0.39623656
absolute magnitude16.29
phase slope0.15
uncertainty0
referenceMPEC 2024-B43
observations used300
oppositions12
arc length (days)8015
first opposition used2002
last opposition used2024
residual rms (arc-secs)0.73
perturbers coarse indicatorM-v
perturbers precise indicator003Ek
first observation date used2002-02-07.0
last observation date used2024-01-18.0
computer nameMPCLINUX
JD of orbit computation2456612.588308
perihelion JD uncertainty (days)4.9106E-04
argument of perihelion uncertainty (°)1.2554E-04
ascending node uncertainty (°)4.8231E-05
inclination uncertainty (°)3.3455E-05
eccentricity uncertainty 3.4712E-07
perihelion distance uncertainty (AU)9.6418E-07
Minimum Orbit Intersection Distances (in AU)
for orbit epoch: 2460200.5, reference: E2024-B43
Mercury2.12927
Venus1.76079
Earth1.4967
Mars0.82226
Jupiter2.01044
Saturn6.49924
Uranus15.9277
Neptune26.9653

Observations

305 total observations over interval: 2002 02 07.40151 – 2024 01 18.245254
These data are available for download (format description).

Date (UT) J2000 RA J2000 Dec Magn Location Ref
2002 02 07.40151 11 30 22.69 +07 48 30.7 20.0   704 – Lincoln Laboratory ETS, New Mexico MPS 50286
2002 02 07.41610 11 30 22.15 +07 48 32.0 19.7   704 – Lincoln Laboratory ETS, New Mexico MPS 50286
2002 02 07.43064 11 30 21.57 +07 48 31.7 19.8   704 – Lincoln Laboratory ETS, New Mexico MPS 50286
2002 02 07.44534 11 30 21.01 +07 48 32.8 20.1   704 – Lincoln Laboratory ETS, New Mexico MPS 50286
2002 02 10.38392 11 28 32.27 +07 51 39.2 19.5   704 – Lincoln Laboratory ETS, New Mexico MPS 50286
2002 02 10.39818 11 28 31.75 +07 51 40.6 19.7   704 – Lincoln Laboratory ETS, New Mexico MPS 50286
2002 02 10.41242 11 28 31.14 +07 51 41.2 19.9   704 – Lincoln Laboratory ETS, New Mexico MPS 50286
2002 02 10.42672 11 28 30.53 +07 51 42.8 19.5   704 – Lincoln Laboratory ETS, New Mexico MPS 50286
2002 02 10.44100 11 28 29.93 +07 51 43.9 19.9   704 – Lincoln Laboratory ETS, New Mexico MPS 50286
2002 02 20.31674 11 20 57.93 +08 06 54.6 19.8   704 – Lincoln Laboratory ETS, New Mexico MPS 55471
2002 02 20.34454 11 20 56.47 +08 07 00.0 19.7   704 – Lincoln Laboratory ETS, New Mexico MPS 55471
2002 02 20.35893 11 20 55.68 +08 07 01.1 19.6   704 – Lincoln Laboratory ETS, New Mexico MPS 55471
2002 02 25.29013 11 16 31.85 +08 16 15.0 19.8   644 – Palomar Mountain/NEAT MPS 55471
2002 02 25.35241 11 16 28.29 +08 16 22.2 19.8   644 – Palomar Mountain/NEAT MPS 55471
2002 02 25.41670 11 16 24.57 +08 16 29.6 19.6   644 – Palomar Mountain/NEAT MPS 55471
2002 03 05.30172 11 08 53.37 +08 31 21.4 18.8 R 699 – Lowell Observatory-LONEOS MPS 55471
2002 03 05.31753 11 08 52.32 +08 31 22.4   699 – Lowell Observatory-LONEOS MPS 55471
2002 03 05.33340 11 08 51.47 +08 31 24.9   699 – Lowell Observatory-LONEOS MPS 55471
2002 03 05.34907 11 08 50.52 +08 31 26.6   699 – Lowell Observatory-LONEOS MPS 55471
2002 03 12.244780 11 02 10.770 +08 42 42.12 19.59 V 645 – Apache Point-Sloan Digital Sky Survey MPS 80061
2002 03 12.248252 11 02 10.562 +08 42 42.41 20.35   645 – Apache Point-Sloan Digital Sky Survey MPS 80061
2002 03 12.45867 11 01 58.25 +08 43 00.2 19.1   644 – Palomar Mountain/NEAT MPS 55471
2002 03 12.46920 11 01 57.65 +08 43 01.2 19.2   644 – Palomar Mountain/NEAT MPS 55471
2002 03 12.47950 11 01 57.05 +08 43 02.3 19.4   644 – Palomar Mountain/NEAT MPS 55471
2002 03 14.24559 11 00 17.64 +08 45 26.4 18.6   704 – Lincoln Laboratory ETS, New Mexico MPS 55471
2002 03 14.25931 11 00 16.82 +08 45 27.0 19.0   704 – Lincoln Laboratory ETS, New Mexico MPS 55471
2002 03 14.27296 11 00 15.99 +08 45 27.1 19.2   704 – Lincoln Laboratory ETS, New Mexico MPS 55471
2002 03 14.28777 11 00 15.18 +08 45 29.2 18.9   704 – Lincoln Laboratory ETS, New Mexico MPS 55471
2002 03 14.30154 11 00 14.33 +08 45 30.1 19.1   704 – Lincoln Laboratory ETS, New Mexico MPS 55471
2002 03 14.98049 10 59 36.43 +08 46 19.5 18.7 R 599 – Campo Imperatore-CINEOS MPS 55471
2002 03 14.98977 10 59 35.90 +08 46 20.2 18.5 R 599 – Campo Imperatore-CINEOS MPS 55471
2002 03 14.99766 10 59 35.46 +08 46 20.8 18.3 R 599 – Campo Imperatore-CINEOS MPS 55471
2002 03 15.00713 10 59 34.89 +08 46 21.3 18.6 R 599 – Campo Imperatore-CINEOS MPS 55471
2002 03 16.24061 10 58 26.91 +08 47 48.9 19.5   704 – Lincoln Laboratory ETS, New Mexico MPS 55471
2002 03 16.25403 10 58 26.30 +08 47 50.3 19.9   704 – Lincoln Laboratory ETS, New Mexico MPS 55471
2002 03 16.26744 10 58 25.44 +08 47 50.7 19.5   704 – Lincoln Laboratory ETS, New Mexico MPS 55471
2002 03 16.28087 10 58 24.58 +08 47 52.8 19.4   704 – Lincoln Laboratory ETS, New Mexico MPS 55471
2002 03 16.29434 10 58 23.79 +08 47 53.5 19.7   704 – Lincoln Laboratory ETS, New Mexico MPS 55471
2002 03 20.20241 10 54 56.57 +08 51 29.4 18.7 R 695 – Kitt Peak MPS 55471
2002 03 20.32160 10 54 50.21 +08 51 34.8   695 – Kitt Peak MPS 55471
2004 09 10.33863 23 41 51.81 -02 46 54.0 20.1 V 691 – Steward Observatory, Kitt Peak-Spacewatch MPS 114310
2004 09 10.36860 23 41 50.17 -02 46 59.5 20.3 V 691 – Steward Observatory, Kitt Peak-Spacewatch MPS 114310
2004 09 10.39954 23 41 48.49 -02 47 04.4 20.3 V 691 – Steward Observatory, Kitt Peak-Spacewatch MPS 114310
2004 09 15.23381 23 37 30.49 -03 00 56.2 20.6 V 691 – Steward Observatory, Kitt Peak-Spacewatch MPS 114310
2004 09 15.26202 23 37 28.93 -03 01 02.3 20.2 V 691 – Steward Observatory, Kitt Peak-Spacewatch MPS 114310
2004 09 15.29553 23 37 27.07 -03 01 07.8 20.2 V 691 – Steward Observatory, Kitt Peak-Spacewatch MPS 114310
2004 09 16.25553 23 36 35.41 -03 03 54.0 20.1 V 691 – Steward Observatory, Kitt Peak-Spacewatch MPS 114310
2004 09 16.28305 23 36 33.90 -03 03 58.8 20.0 V 691 – Steward Observatory, Kitt Peak-Spacewatch MPS 114310
2004 09 16.31419 23 36 32.16 -03 04 04.1 20.0 V 691 – Steward Observatory, Kitt Peak-Spacewatch MPS 114310
2004 10 12.09011 23 15 49.22 -04 03 23.4 21.2 V 691 – Steward Observatory, Kitt Peak-Spacewatch MPS 116572
2004 10 12.10744 23 15 48.53 -04 03 24.7 21.2 V 691 – Steward Observatory, Kitt Peak-Spacewatch MPS 116572
2004 10 12.12407 23 15 47.92 -04 03 26.1 20.8 V 691 – Steward Observatory, Kitt Peak-Spacewatch MPS 116572
2009 10 21.83883 02 02 54.98 +21 41 56.3 19.7 C 114 – Engelhardt Observatory, Zelenchukskaya Station MPS 299304
2009 10 21.84256 02 02 54.88 +21 41 56.2 19.5 C 114 – Engelhardt Observatory, Zelenchukskaya Station MPS 299304
2009 10 21.84647 02 02 54.50 +21 41 55.5 19.7 C 114 – Engelhardt Observatory, Zelenchukskaya Station MPS 299304
2009 10 21.85035 02 02 54.34 +21 41 55.0 20.2 C 114 – Engelhardt Observatory, Zelenchukskaya Station MPS 299304
2009 10 21.85427 02 02 54.00 +21 41 54.9 19.9 C 114 – Engelhardt Observatory, Zelenchukskaya Station MPS 299304
2011 02 11.31122 10 47 11.43 +14 09 27.2 19.1   704 – Lincoln Laboratory ETS, New Mexico MPS 369437
2011 02 11.32560 10 47 10.64 +14 09 29.6 20.0   704 – Lincoln Laboratory ETS, New Mexico MPS 369437
2011 02 11.33939 10 47 09.92 +14 09 30.2 20.1   704 – Lincoln Laboratory ETS, New Mexico MPS 369437
2011 02 11.35316 10 47 09.18 +14 09 32.8 19.5   704 – Lincoln Laboratory ETS, New Mexico MPS 369437
2011 02 11.36695 10 47 08.41 +14 09 34.6 19.8   704 – Lincoln Laboratory ETS, New Mexico MPS 369437
2011 02 23.36352 10 35 48.26 +14 33 03.2 19.4 V 703 – Catalina Sky Survey MPS 371407
2011 02 23.37153 10 35 47.76 +14 33 04.3 19.0 V 703 – Catalina Sky Survey MPS 371407
2011 02 23.37959 10 35 47.18 +14 33 05.1 19.0 V 703 – Catalina Sky Survey MPS 371407
2011 02 23.38776 10 35 46.71 +14 33 05.1 19.2 V 703 – Catalina Sky Survey MPS 371407
2011 03 02.23162 10 28 59.98 +14 42 52.9 19.4 V 703 – Catalina Sky Survey MPS 371945
2011 03 02.23854 10 28 59.55 +14 42 53.8 19.5 V 703 – Catalina Sky Survey MPS 371945
2011 03 02.24546 10 28 59.08 +14 42 53.9 19.7 V 703 – Catalina Sky Survey MPS 371945
2011 03 02.25241 10 28 58.72 +14 42 54.9 19.6 V 703 – Catalina Sky Survey MPS 371945
2011 03 05.29854 10 26 01.57 +14 45 51.1 19.6   704 – Lincoln Laboratory ETS, New Mexico MPS 373369
2011 03 05.31090 10 26 00.76 +14 45 52.3 20.0   704 – Lincoln Laboratory ETS, New Mexico MPS 373369
2011 03 05.32329 10 26 00.02 +14 45 53.0 19.9   704 – Lincoln Laboratory ETS, New Mexico MPS 373369
2011 03 05.33565 10 25 59.27 +14 45 53.2 19.5   704 – Lincoln Laboratory ETS, New Mexico MPS 373369
2011 03 05.34800 10 25 58.55 +14 45 54.1 19.7   704 – Lincoln Laboratory ETS, New Mexico MPS 373369
2011 03 08.28948 10 23 13.03 +14 47 44.7 19.1   704 – Lincoln Laboratory ETS, New Mexico MPS 386796
2011 03 08.30183 10 23 12.34 +14 47 42.2 19.7   704 – Lincoln Laboratory ETS, New Mexico MPS 386796
2011 03 08.32690 10 23 10.89 +14 47 43.9 19.6   704 – Lincoln Laboratory ETS, New Mexico MPS 386796
2011 03 08.33881 10 23 10.24 +14 47 46.5 19.5   704 – Lincoln Laboratory ETS, New Mexico MPS 386796
2011 03 08.84035 10 22 42.81 +14 47 56.4 19.8 V A50 – Andrushivka Astronomical Observatory MPS 373369
2011 03 08.85846 10 22 41.81 +14 47 56.6 19.5 V A50 – Andrushivka Astronomical Observatory MPS 373369
2011 03 08.87658 10 22 40.81 +14 47 56.8 19.6 V A50 – Andrushivka Astronomical Observatory MPS 373369
2011 03 09.19889 10 22 23.34 +14 48 04.8 19.4 V G96 – Mt. Lemmon Survey MPS 373369
2011 03 09.20826 10 22 22.83 +14 48 05.1 19.5 V G96 – Mt. Lemmon Survey MPS 373369
